Time,TemperatureF,DewpointF,PressureIn,WindDirection,WindDirectionDegrees,WindSpeedMPH,WindSpeedGustMPH,Humidity,HourlyPrecipIn,Conditions,Clouds,dailyrainin,SolarRadiationWatts/m^2,SoftwareType,DateUTC
2013-04-21 00:01:00,28.0,22.0,-100.00,ESE,115,0.0,1.0,78,0.00,,,0.00,0.000000,,2013-04-21 08:01:00,
2013-04-21 00:11:00,28.0,22.0,-100.00,ESE,115,0.0,1.0,78,0.00,,,0.00,0.000000,,2013-04-21 08:11:00,
2013-04-21 00:21:00,28.0,22.0,-100.00,ESE,115,0.0,1.0,78,0.00,,,0.00,0.000000,,2013-04-21 08:21:00,
2013-04-21 00:42:00,28.0,23.0,-100.00,ESE,114,0.0,1.0,81,0.00,,,0.00,0.000000,,2013-04-21 08:42:00,
2013-04-21 00:52:00,28.0,23.0,-100.00,ESE,114,0.0,1.0,81,0.00,,,0.00,0.000000,,2013-04-21 08:52:00,
2013-04-21 01:01:00,28.0,23.0,-100.00,ESE,114,0.0,1.0,81,0.00,,,0.00,0.000000,,2013-04-21 09:01:00,
2013-04-21 01:11:00,28.0,23.0,-100.00,ESE,114,0.0,1.0,81,0.00,,,0.00,0.000000,,2013-04-21 09:11:00,
2013-04-21 01:21:00,28.0,23.0,-100.00,ESE,114,0.0,1.0,81,0.00,,,0.00,0.000000,,2013-04-21 09:21:00,
2013-04-21 01:43:00,28.0,24.0,-100.00,ESE,116,0.0,1.0,85,0.00,,,0.00,0.000000,,2013-04-21 09:43:00,
2013-04-21 01:53:00,28.0,24.0,-100.00,ESE,116,0.0,1.0,85,0.00,,,0.00,0.000000,,2013-04-21 09:53:00,
2013-04-21 02:02:00,28.0,24.0,-100.00,ESE,116,0.0,1.0,85,0.00,,,0.00,0.000000,,2013-04-21 10:02:00,
2013-04-21 02:12:00,28.0,24.0,-100.00,ESE,116,0.0,1.0,85,0.00,,,0.00,0.000000,,2013-04-21 10:12:00,
2013-04-21 02:22:00,28.0,24.0,-100.00,ESE,116,0.0,1.0,85,0.00,,,0.00,0.000000,,2013-04-21 10:22:00,
2013-04-21 02:42:00,27.0,23.0,-100.00,ESE,116,0.0,1.0,87,0.00,,,0.00,0.000000,,2013-04-21 10:42:00,
2013-04-21 02:52:00,27.0,23.0,-100.00,ESE,116,0.0,1.0,87,0.00,,,0.00,0.000000,,2013-04-21 10:52:00,
2013-04-21 03:02:00,27.0,23.0,-100.00,ESE,116,0.0,1.0,87,0.00,,,0.00,0.000000,,2013-04-21 11:02:00,
2013-04-21 03:11:00,27.0,23.0,-100.00,ESE,116,0.0,1.0,87,0.00,,,0.00,0.000000,,2013-04-21 11:11:00,
2013-04-21 03:21:00,27.0,23.0,-100.00,ESE,116,0.0,1.0,87,0.00,,,0.00,0.000000,,2013-04-21 11:21:00,
2013-04-21 03:42:00,27.0,24.0,-100.00,ESE,112,0.0,1.0,88,0.00,,,0.00,0.000000,,2013-04-21 11:42:00,
2013-04-21 03:52:00,27.0,24.0,-100.00,ESE,112,0.0,1.0,88,0.00,,,0.00,0.000000,,2013-04-21 11:52:00,
2013-04-21 04:02:00,27.0,24.0,-100.00,ESE,112,0.0,1.0,88,0.00,,,0.00,0.000000,,2013-04-21 12:02:00,
2013-04-21 04:12:00,27.0,24.0,-100.00,ESE,112,0.0,1.0,88,0.00,,,0.00,0.000000,,2013-04-21 12:12:00,
2013-04-21 04:22:00,27.0,24.0,-100.00,ESE,112,0.0,1.0,88,0.00,,,0.00,0.000000,,2013-04-21 12:22:00,
2013-04-21 04:42:00,25.0,22.0,-100.00,ESE,105,0.0,1.0,90,0.00,,,0.00,0.000000,,2013-04-21 12:42:00,
2013-04-21 04:52:00,25.0,22.0,-100.00,ESE,105,0.0,1.0,90,0.00,,,0.00,0.000000,,2013-04-21 12:52:00,
2013-04-21 05:01:00,25.0,22.0,-100.00,ESE,105,0.0,1.0,90,0.00,,,0.00,0.000000,,2013-04-21 13:01:00,
2013-04-21 05:11:00,25.0,22.0,-100.00,ESE,105,0.0,1.0,90,0.00,,,0.00,0.000000,,2013-04-21 13:11:00,
2013-04-21 05:21:00,25.0,22.0,-100.00,ESE,105,0.0,1.0,90,0.00,,,0.00,0.000000,,2013-04-21 13:21:00,
2013-04-21 05:42:00,25.0,23.0,-100.00,ESE,116,0.0,1.0,92,0.00,,,0.00,0.000000,,2013-04-21 13:42:00,
2013-04-21 05:52:00,25.0,23.0,-100.00,ESE,116,0.0,1.0,92,0.00,,,0.00,0.000000,,2013-04-21 13:52:00,
2013-04-21 06:01:00,25.0,23.0,-100.00,ESE,116,0.0,1.0,92,0.00,,,0.00,0.000000,,2013-04-21 14:01:00,
2013-04-21 06:11:00,25.0,23.0,-100.00,ESE,116,0.0,1.0,92,0.00,,,0.00,0.000000,,2013-04-21 14:11:00,
2013-04-21 06:21:00,25.0,23.0,-100.00,ESE,116,0.0,1.0,92,0.00,,,0.00,0.000000,,2013-04-21 14:21:00,
2013-04-21 06:42:00,23.0,21.0,-100.00,ESE,112,0.0,1.0,92,0.00,,,0.00,4.000000,,2013-04-21 14:42:00,
2013-04-21 06:52:00,23.0,21.0,-100.00,ESE,112,0.0,1.0,92,0.00,,,0.00,4.000000,,2013-04-21 14:52:00,
2013-04-21 07:02:00,23.0,21.0,-100.00,ESE,112,0.0,1.0,92,0.00,,,0.00,4.000000,,2013-04-21 15:02:00,
2013-04-21 07:11:00,23.0,21.0,-100.00,ESE,112,0.0,1.0,92,0.00,,,0.00,4.000000,,2013-04-21 15:11:00,
2013-04-21 07:22:00,23.0,21.0,-100.00,ESE,112,0.0,1.0,92,0.00,,,0.00,4.000000,,2013-04-21 15:22:00,
2013-04-21 07:43:00,23.0,21.0,-100.00,ESE,110,0.0,2.0,91,0.00,,,-99.99,18.000000,,2013-04-21 15:43:00,
2013-04-21 07:53:00,23.0,21.0,-100.00,ESE,110,0.0,2.0,91,0.00,,,-99.99,18.000000,,2013-04-21 15:53:00,
2013-04-21 08:03:00,23.0,21.0,-100.00,ESE,110,0.0,2.0,91,0.00,,,-99.99,18.000000,,2013-04-21 16:03:00,
2013-04-21 08:12:00,23.0,21.0,-100.00,ESE,110,0.0,2.0,91,0.00,,,-99.99,18.000000,,2013-04-21 16:12:00,
2013-04-21 08:22:00,23.0,21.0,-100.00,ESE,110,0.0,2.0,91,0.00,,,-99.99,18.000000,,2013-04-21 16:22:00,
2013-04-21 08:42:00,25.0,22.0,-100.00,ESE,105,1.0,2.0,89,0.00,,,0.00,29.000000,,2013-04-21 16:42:00,
2013-04-21 08:52:00,25.0,22.0,-100.00,ESE,105,1.0,2.0,89,0.00,,,0.00,29.000000,,2013-04-21 16:52:00,
2013-04-21 09:02:00,25.0,22.0,-100.00,ESE,105,1.0,2.0,89,0.00,,,0.00,29.000000,,2013-04-21 17:02:00,
2013-04-21 09:12:00,25.0,22.0,-100.00,ESE,105,1.0,2.0,89,0.00,,,0.00,29.000000,,2013-04-21 17:12:00,
2013-04-21 09:22:00,25.0,22.0,-100.00,ESE,105,1.0,2.0,89,0.00,,,0.00,29.000000,,2013-04-21 17:22:00,
2013-04-21 09:42:00,25.0,21.0,-100.00,ESE,123,0.0,2.0,84,0.00,,,0.00,40.000000,,2013-04-21 17:42:00,
2013-04-21 09:52:00,25.0,21.0,-100.00,ESE,123,0.0,2.0,84,0.00,,,0.00,40.000000,,2013-04-21 17:52:00,
2013-04-21 10:02:00,25.0,21.0,-100.00,ESE,123,0.0,2.0,84,0.00,,,0.00,40.000000,,2013-04-21 18:02:00,
2013-04-21 10:11:00,25.0,21.0,-100.00,ESE,123,0.0,2.0,84,0.00,,,0.00,40.000000,,2013-04-21 18:11:00,
2013-04-21 10:21:00,25.0,21.0,-100.00,ESE,123,0.0,2.0,84,0.00,,,0.00,40.000000,,2013-04-21 18:21:00,
2013-04-21 10:42:00,32.0,17.0,-100.00,SW,235,1.0,2.0,54,-99.99,,,0.00,377.000000,,2013-04-21 18:42:00,
2013-04-21 10:52:00,32.0,17.0,-100.00,SW,235,1.0,2.0,54,-99.99,,,0.00,377.000000,,2013-04-21 18:52:00,
2013-04-21 11:02:00,32.0,17.0,-100.00,SW,235,1.0,2.0,54,-99.99,,,0.00,377.000000,,2013-04-21 19:02:00,
2013-04-21 11:11:00,32.0,17.0,-100.00,SW,235,1.0,2.0,54,-99.99,,,0.00,377.000000,,2013-04-21 19:11:00,
2013-04-21 11:21:00,32.0,17.0,-100.00,SW,235,1.0,2.0,54,-99.99,,,0.00,377.000000,,2013-04-21 19:21:00,
2013-04-21 11:43:00,37.0,19.0,-100.00,WNW,287,3.0,7.0,46,0.00,,,0.00,488.000000,,2013-04-21 19:43:00,
2013-04-21 11:52:00,37.0,19.0,-100.00,WNW,287,3.0,7.0,46,0.00,,,0.00,488.000000,,2013-04-21 19:52:00,
2013-04-21 12:01:00,37.0,19.0,-100.00,WNW,287,3.0,7.0,46,0.00,,,0.00,488.000000,,2013-04-21 20:01:00,
2013-04-21 12:11:00,37.0,19.0,-100.00,WNW,287,3.0,7.0,46,0.00,,,0.00,488.000000,,2013-04-21 20:11:00,
2013-04-21 12:21:00,37.0,19.0,-100.00,WNW,287,3.0,7.0,46,0.00,,,0.00,488.000000,,2013-04-21 20:21:00,
2013-04-21 12:42:00,39.0,15.0,-100.00,NW,326,2.0,6.0,36,0.00,,,0.00,561.000000,,2013-04-21 20:42:00,
2013-04-21 12:52:00,39.0,15.0,-100.00,NW,326,2.0,6.0,36,0.00,,,0.00,561.000000,,2013-04-21 20:52:00,
2013-04-21 13:02:00,39.0,15.0,-100.00,NW,326,2.0,6.0,36,0.00,,,0.00,561.000000,,2013-04-21 21:02:00,
2013-04-21 13:12:00,39.0,15.0,-100.00,NW,326,2.0,6.0,36,0.00,,,0.00,561.000000,,2013-04-21 21:12:00,
2013-04-21 13:21:00,39.0,15.0,-100.00,NW,326,2.0,6.0,36,0.00,,,0.00,561.000000,,2013-04-21 21:21:00,
2013-04-21 13:43:00,43.0,14.0,-100.00,North,357,4.0,9.0,30,0.00,,,0.00,612.000000,,2013-04-21 21:43:00,
2013-04-21 13:53:00,43.0,14.0,-100.00,North,357,4.0,9.0,30,0.00,,,0.00,612.000000,,2013-04-21 21:53:00,
2013-04-21 14:02:00,43.0,14.0,-100.00,North,357,4.0,9.0,30,0.00,,,0.00,612.000000,,2013-04-21 22:02:00,
2013-04-21 14:12:00,43.0,14.0,-100.00,North,357,4.0,9.0,30,0.00,,,0.00,612.000000,,2013-04-21 22:12:00,
2013-04-21 14:22:00,43.0,14.0,-100.00,North,357,4.0,9.0,30,0.00,,,0.00,612.000000,,2013-04-21 22:22:00,
2013-04-21 14:43:00,45.0,16.0,-100.00,NNW,331,4.0,9.0,31,0.00,,,0.00,599.000000,,2013-04-21 22:43:00,
2013-04-21 14:52:00,45.0,16.0,-100.00,NNW,331,4.0,9.0,31,0.00,,,0.00,599.000000,,2013-04-21 22:52:00,
2013-04-21 15:02:00,45.0,16.0,-100.00,NNW,331,4.0,9.0,31,0.00,,,0.00,599.000000,,2013-04-21 23:02:00,
2013-04-21 15:12:00,45.0,16.0,-100.00,NNW,331,4.0,9.0,31,0.00,,,0.00,599.000000,,2013-04-21 23:12:00,
2013-04-21 15:22:00,45.0,16.0,-100.00,NNW,331,4.0,9.0,31,0.00,,,0.00,599.000000,,2013-04-21 23:22:00,
2013-04-21 15:43:00,45.0,17.0,-100.00,NW,310,4.0,10.0,33,0.00,,,0.00,281.000000,,2013-04-21 23:43:00,
2013-04-21 15:52:00,45.0,17.0,-100.00,NW,310,4.0,10.0,33,0.00,,,0.00,281.000000,,2013-04-21 23:52:00,
2013-04-21 16:01:00,45.0,17.0,-100.00,NW,310,4.0,10.0,33,0.00,,,0.00,281.000000,,2013-04-22 00:01:00,
2013-04-21 16:11:00,45.0,17.0,-100.00,NW,310,4.0,10.0,33,0.00,,,0.00,281.000000,,2013-04-22 00:11:00,
2013-04-21 16:21:00,45.0,17.0,-100.00,NW,310,4.0,10.0,33,0.00,,,0.00,281.000000,,2013-04-22 00:21:00,
2013-04-21 16:42:00,46.0,17.0,-100.00,NW,309,4.0,7.0,31,0.00,,,0.00,286.000000,,2013-04-22 00:42:00,
2013-04-21 16:52:00,46.0,17.0,-100.00,NW,309,4.0,7.0,31,0.00,,,0.00,286.000000,,2013-04-22 00:52:00,
2013-04-21 17:01:00,46.0,17.0,-100.00,NW,309,4.0,7.0,31,0.00,,,0.00,286.000000,,2013-04-22 01:01:00,
2013-04-21 17:11:00,46.0,17.0,-100.00,NW,309,4.0,7.0,31,0.00,,,0.00,286.000000,,2013-04-22 01:11:00,
2013-04-21 17:21:00,46.0,17.0,-100.00,NW,309,4.0,7.0,31,0.00,,,0.00,286.000000,,2013-04-22 01:21:00,
2013-04-21 17:42:00,46.0,16.0,-100.00,NW,307,4.0,7.0,29,0.00,,,0.00,387.000000,,2013-04-22 01:42:00,
2013-04-21 17:52:00,46.0,16.0,-100.00,NW,307,4.0,7.0,29,0.00,,,0.00,387.000000,,2013-04-22 01:52:00,
2013-04-21 18:01:00,46.0,16.0,-100.00,NW,307,4.0,7.0,29,0.00,,,0.00,387.000000,,2013-04-22 02:01:00,
2013-04-21 18:11:00,46.0,16.0,-100.00,NW,307,4.0,7.0,29,0.00,,,0.00,387.000000,,2013-04-22 02:11:00,
2013-04-21 18:21:00,46.0,16.0,-100.00,NW,307,4.0,7.0,29,0.00,,,0.00,387.000000,,2013-04-22 02:21:00,
2013-04-21 18:42:00,46.0,18.0,-100.00,NW,310,2.0,5.0,32,0.00,,,-99.99,205.000000,,2013-04-22 02:42:00,
2013-04-21 18:52:00,46.0,18.0,-100.00,NW,310,2.0,5.0,32,0.00,,,-99.99,205.000000,,2013-04-22 02:52:00,
2013-04-21 19:02:00,46.0,18.0,-100.00,NW,310,2.0,5.0,32,0.00,,,-99.99,205.000000,,2013-04-22 03:02:00,
2013-04-21 19:11:00,46.0,18.0,-100.00,NW,310,2.0,5.0,32,0.00,,,-99.99,205.000000,,2013-04-22 03:11:00,
2013-04-21 19:22:00,46.0,18.0,-100.00,NW,310,2.0,5.0,32,0.00,,,-99.99,205.000000,,2013-04-22 03:22:00,
2013-04-21 19:43:00,45.0,19.0,-100.00,NW,312,2.0,5.0,35,0.00,,,0.00,105.000000,,2013-04-22 03:43:00,
2013-04-21 19:52:00,45.0,19.0,-100.00,NW,312,2.0,5.0,35,0.00,,,0.00,105.000000,,2013-04-22 03:52:00,
2013-04-21 20:02:00,45.0,19.0,-100.00,NW,312,2.0,5.0,35,0.00,,,0.00,105.000000,,2013-04-22 04:02:00,
2013-04-21 20:12:00,45.0,19.0,-100.00,NW,312,2.0,5.0,35,0.00,,,0.00,105.000000,,2013-04-22 04:12:00,
2013-04-21 20:23:00,45.0,19.0,-100.00,NW,312,2.0,5.0,35,0.00,,,0.00,105.000000,,2013-04-22 04:23:00,
2013-04-21 20:43:00,43.0,25.0,-100.00,West,276,1.0,3.0,50,0.00,,,0.00,41.000000,,2013-04-22 04:43:00,
2013-04-21 20:52:00,43.0,25.0,-100.00,West,276,1.0,3.0,50,0.00,,,0.00,41.000000,,2013-04-22 04:52:00,
2013-04-21 21:02:00,43.0,25.0,-100.00,West,276,1.0,3.0,50,0.00,,,0.00,41.000000,,2013-04-22 05:02:00,
2013-04-21 21:11:00,43.0,25.0,-100.00,West,276,1.0,3.0,50,0.00,,,0.00,41.000000,,2013-04-22 05:11:00,
2013-04-21 21:22:00,43.0,25.0,-100.00,West,276,1.0,3.0,50,0.00,,,0.00,41.000000,,2013-04-22 05:22:00,
2013-04-21 21:42:00,37.0,30.0,-100.00,South,170,1.0,3.0,74,0.00,,,0.00,4.000000,,2013-04-22 05:42:00,
2013-04-21 21:52:00,37.0,30.0,-100.00,South,170,1.0,3.0,74,0.00,,,0.00,4.000000,,2013-04-22 05:52:00,
2013-04-21 22:42:00,34.0,25.0,-100.00,SE,125,0.0,2.0,71,0.00,,,0.00,0.000000,,2013-04-22 06:42:00,
2013-04-21 22:52:00,34.0,25.0,-100.00,SE,125,0.0,2.0,71,0.00,,,0.00,0.000000,,2013-04-22 06:52:00,
2013-04-21 23:01:00,34.0,25.0,-100.00,SE,125,0.0,2.0,71,0.00,,,0.00,0.000000,,2013-04-22 07:01:00,
2013-04-21 23:11:00,34.0,25.0,-100.00,SE,125,0.0,2.0,71,0.00,,,0.00,0.000000,,2013-04-22 07:11:00,
2013-04-21 23:21:00,34.0,25.0,-100.00,SE,125,0.0,2.0,71,0.00,,,0.00,0.000000,,2013-04-22 07:21:00,
2013-04-21 23:42:00,32.0,26.0,-100.00,SE,127,0.0,1.0,77,0.00,,,0.00,0.000000,,2013-04-22 07:42:00,
2013-04-21 23:52:00,32.0,26.0,-100.00,SE,127,0.0,1.0,77,0.00,,,0.00,0.000000,,2013-04-22 07:52:00,